Tracking 18840 objects as of 18-November-2017
HD Live streaming from Space Station
objects crossing your sky now

EDUSAT

Track EDUSAT now!
10-day predictions
EDUSAT is classified as:


NORAD ID: 37788
Int'l Code: 2011-044A
Perigee: 639.5 km
Apogee: 692.1 km
Inclination: 98.3 °
Period: 97.9 minutes
Semi major axis: 7036 km
RCS: 0.1421 m2 (medium)
Launch date: August 17, 2011
Source: Italy (IT)
Launch site: Orenburg, Russia (OREN)

EduSat is a microsatellite built by the University of Rome.
aabbcc
Your satellite tracking list
Your tracking list is empty




NASA's NSSDC Master Catalog

Two Line Element Set (TLE):
1 37788U 11044A   17321.91478392 +.00000184 +00000-0 +38591-4 0  9993
2 37788 098.2670 082.8660 0037340 322.0816 150.6923 14.70759374335482
Source of the keplerian elements: AFSPC